Flight Track Log - Related Links

Times and Time Zones

All times are in EDT time to prevent confusion due to time zone crossing. See the AWE93 flight status page for this flight to view local times or setup timezone preferences in your user account.

Time Position Orientation Groundspeed Altitude Reporting Facility
EDT Latitude Longitude Course Direction KTS MPH feet Rate Location/Type
Sun 07:42:32 PM 42.3500 -71.0167 304° West 153 176 500  Level KA90
Sun 07:43:20 PM 42.3333 -71.0000 144° Southeast 163 188 2,100 1,500 Climbing KA90
Sun 07:44:20 PM 42.3167 -70.9167 105° East 267 307 3,200 2,031 Climbing KA90
Sun 07:45:30 PM 42.3344 -70.8056 78° East 311 358 6,500 2,400 Climbing Boston Center
Sun 07:46:00 PM 42.6603 -70.9979 300° West  Level FlightAware Approximate
Sun 07:46:30 PM 42.3814 -70.7369 47° Northeast 248 285 8,400  Level Boston Center
Sun 07:47:00 PM 42.7194 -71.1387 304° West  Level FlightAware Approximate
Sun 07:47:30 PM 42.4622 -70.7150 11° North 253 291 10,900  Level Boston Center
Sun 07:48:30 PM 42.5383 -70.7719 331° Northwest 250 288 12,400 1,350 Climbing Boston Center
Sun 07:49:30 PM 42.5833 -70.8694 302° West 276 318 13,600 1,500 Climbing Boston Center
Sun 07:50:30 PM 42.6414 -70.9978 302° West 344 396 15,400 1,700 Climbing Boston Center
Sun 07:51:30 PM 42.6553 -71.1217 279° West 364 419 17,000 1,600 Climbing Boston Center
Sun 07:52:30 PM 42.6758 -71.2767 280° West 380 437 18,600 1,350 Climbing Boston Center
Sun 07:53:30 PM 42.6961 -71.4258 281° West 387 445 19,700 1,350 Climbing Boston Center
Sun 07:54:30 PM 42.7097 -71.5556 278° West 398 458 21,300 1,250 Climbing Boston Center
Sun 07:55:30 PM 42.7294 -71.7081 280° West 398 458 22,200 955 Climbing Boston Center
Sun 07:56:42 PM 42.7469 -71.8606 279° West 404 465 23,400 1,045 Climbing Boston Center
Sun 07:57:42 PM 42.7667 -72.0497 278° West 409 471 24,500 1,000 Climbing Boston Center
Sun 07:58:42 PM 42.7858 -72.2053 280° West 415 478 25,400 850 Climbing Boston Center
Sun 07:59:42 PM 42.8089 -72.3836 280° West 426 490 26,200 700 Climbing Boston Center
Sun 08:00:42 PM 42.8275 -72.5506 279° West 439 505 26,800 850 Climbing Boston Center
Sun 08:01:42 PM 42.8419 -72.7119 277° West 445 512 27,900 950 Climbing Boston Center
Sun 08:02:42 PM 42.8603 -72.8764 279° West 445 512 28,700 800 Climbing Boston Center
Sun 08:03:42 PM 42.8781 -73.0378 279° West 462 532 29,500 750 Climbing Boston Center
Sun 08:04:42 PM 42.8939 -73.2025 278° West 462 532 30,200 750 Climbing Boston Center
Sun 08:05:42 PM 42.9072 -73.3839 276° West 455 524 31,000 850 Climbing Boston Center
Sun 08:06:42 PM 42.9244 -73.5517 278° West 450 518 31,900 450 Climbing Boston Center
Sun 08:07:42 PM 42.9433 -73.7164 279° West 445 512 31,900 50 Level Boston Center
Sun 08:08:42 PM 42.9603 -73.8814 278° West 445 512 32,000  Climbing Boston Center
Sun 08:09:42 PM 42.9747 -74.0433 277° West 445 512 31,900 -50 Descending Boston Center
Sun 08:10:42 PM 42.9889 -74.2083 277° West 445 512 31,900 50 Level Boston Center
Sun 08:11:42 PM 43.0050 -74.3736 278° West 445 512 32,000 50 Climbing Boston Center
Sun 08:12:42 PM 43.0189 -74.5358 277° West 445 512 32,000  Level Boston Center
Sun 08:13:42 PM 43.0344 -74.7069 277° West 445 512 32,000  Level Boston Center
Sun 08:14:42 PM 43.0497 -74.8694 277° West 445 512 32,000 -45 Level Boston Center
Sun 08:15:54 PM 43.0647 -75.0378 277° West 445 512 31,900  Descending Boston Center
Sun 08:16:54 PM 43.0792 -75.2203 276° West 445 512 32,000 50 Climbing Boston Center
Sun 08:17:54 PM 43.0936 -75.3944 277° West 451 519 32,000  Level Boston Center
Sun 08:18:54 PM 43.1081 -75.5631 277° West 451 519 32,000 -29 Level Boston Center
Sun 08:21:23 PM 43.1428 -75.9989 276° West 444 511 31,900  Descending Cleveland Center
Sun 08:22:23 PM 43.1575 -76.1686 277° West 455 524 32,000 50 Climbing Cleveland Center
Sun 08:23:23 PM 43.1494 -76.3428 266° West 455 524 32,000  Level Cleveland Center
Sun 08:24:23 PM 43.1347 -76.5117 263° West 460 529 32,000  Level Cleveland Center
Sun 08:25:23 PM 43.1197 -76.6806 263° West 460 529 32,000  Level Cleveland Center
Sun 08:26:23 PM 43.1058 -76.8322 263° West 460 529 32,000  Level Cleveland Center
Sun 08:27:23 PM 43.0903 -76.9981 263° West 454 522 32,000  Level Cleveland Center
Sun 08:28:23 PM 43.0747 -77.1667 263° West 449 517 32,000  Level Cleveland Center
Sun 08:29:23 PM 43.0569 -77.3525 263° West 455 524 32,000 250 Level Cleveland Center
Sun 08:30:23 PM 43.0367 -77.5183 261° West 455 524 32,500 600 Climbing Cleveland Center
Sun 08:31:23 PM 43.0139 -77.6869 260° West 455 524 33,200 700 Climbing Cleveland Center
Sun 08:32:23 PM 42.9908 -77.8528 259° West 450 518 33,900 400 Climbing Cleveland Center
Sun 08:33:23 PM 42.9694 -78.0211 260° West 450 518 34,000 50 Climbing Cleveland Center
Sun 08:34:23 PM 42.9461 -78.1894 259° West 450 518 34,000  Level Cleveland Center
Sun 08:35:23 PM 42.9267 -78.3631 261° West 456 525 34,000  Level Cleveland Center
Sun 08:36:23 PM 42.9028 -78.5339 259° West 456 525 34,000  Level Cleveland Center
Sun 08:37:23 PM 42.8828 -78.7047 261° West 461 531 34,000  Level Cleveland Center
Sun 08:38:23 PM 42.8603 -78.8781 260° West 466 536 34,000 50 Level Cleveland Center
Sun 08:39:23 PM 42.8397 -79.0514 261° West 466 536 34,100  Climbing Cleveland Center
Sun 08:40:23 PM 42.8128 -79.2247 258° West 466 536 34,000 -50 Descending Cleveland Center
Sun 08:41:23 PM 42.7917 -79.3950 260° West 466 536 34,000  Level Cleveland Center
Sun 08:42:23 PM 42.7683 -79.5650 259° West 466 536 34,000  Level Cleveland Center
Sun 08:43:23 PM 42.7447 -79.7378 260° West 471 542 34,000  Level Cleveland Center
Sun 08:44:23 PM 42.7189 -79.9133 259° West 471 542 34,000  Level Cleveland Center
Sun 08:45:23 PM 42.6944 -80.0664 258° West 471 542 34,000  Level Cleveland Center
Sun 08:46:23 PM 42.6681 -80.2331 258° West 471 542 34,000  Level Cleveland Center
Sun 08:47:23 PM 42.6436 -80.4111 259° West 471 542 34,000  Level Cleveland Center
Sun 08:48:23 PM 42.6186 -80.5831 259° West 466 536 34,000  Level Cleveland Center
Sun 08:49:23 PM 42.5956 -80.7581 260° West 476 548 34,000  Level Cleveland Center
Sun 08:50:23 PM 42.5681 -80.9242 257° West 471 542 34,000  Level Cleveland Center
Sun 08:51:23 PM 42.5425 -81.0989 259° West 471 542 34,000  Level Cleveland Center
Sun 08:52:23 PM 42.5122 -81.2931 258° West 471 542 34,000  Level Cleveland Center
Sun 08:53:23 PM 42.4839 -81.4672 258° West 471 542 34,000  Level Cleveland Center
Sun 08:54:23 PM 42.4575 -81.6386 258° West 471 542 34,000  Level Cleveland Center
Sun 08:55:23 PM 42.4286 -81.8125 257° West 471 542 34,000  Level Cleveland Center
Sun 08:56:23 PM 42.4017 -81.9864 258° West 472 543 34,000  Level Cleveland Center
Sun 08:57:23 PM 42.3789 -82.1264 258° West 472 543 34,000  Level Cleveland Center
Sun 08:58:23 PM 42.3472 -82.3136 257° West 472 543 34,000  Level Cleveland Center
Sun 08:59:23 PM 42.3172 -82.4869 257° West 472 543 34,000  Level Cleveland Center
Sun 09:00:23 PM 42.2892 -82.6603 258° West 472 543 34,000  Level Cleveland Center
Sun 09:01:23 PM 42.2611 -82.8306 258° West 472 543 34,000  Level Cleveland Center
Sun 09:02:23 PM 42.2306 -83.0033 257° West 472 543 34,000  Level Cleveland Center
Sun 09:03:23 PM 42.1994 -83.1758 256° West 472 543 34,000  Level Cleveland Center
Sun 09:04:23 PM 42.1725 -83.3542 259° West 489 563 34,000  Level Cleveland Center
Sun 09:05:23 PM 42.1411 -83.5264 256° West 484 557 34,000  Level Cleveland Center
Sun 09:06:23 PM 42.1047 -83.7150 255° West 484 557 34,000  Level Cleveland Center
Sun 09:07:23 PM 42.0750 -83.8900 257° West 484 557 34,000  Level Cleveland Center
Sun 09:08:58 PM 42.0333 -84.1358 257° West 471 542 34,000  Level Chicago Center
Sun 09:10:00 PM 42.0019 -84.3056 256° West 469 540 34,000  Level Chicago Center
Sun 09:11:02 PM 41.9703 -84.4761 256° West 470 541 34,000  Level Chicago Center
Sun 09:12:04 PM 41.9339 -84.6725 256° West 468 539 34,000  Level Chicago Center
Sun 09:13:06 PM 41.9022 -84.8400 256° West 466 536 34,000  Level Chicago Center
Sun 09:14:07 PM 41.8714 -85.0067 256° West 464 534 34,000  Level Chicago Center
Sun 09:15:09 PM 41.8400 -85.1731 256° West 464 534 34,000  Level Chicago Center
Sun 09:16:11 PM 41.8028 -85.3711 256° West 465 535 34,000  Level Chicago Center
Sun 09:17:13 PM 41.7700 -85.5342 255° West 466 536 34,000  Level Chicago Center
Sun 09:18:15 PM 41.7367 -85.6956 255° West 460 529 34,000  Level Chicago Center
Sun 09:19:17 PM 41.7042 -85.8586 255° West 457 526 34,000  Level Chicago Center
Sun 09:20:19 PM 41.6717 -86.0231 255° West 463 533 34,000  Level Chicago Center
Sun 09:21:20 PM 41.6319 -86.2208 255° West 463 533 34,000 49 Level Chicago Center
Sun 09:22:22 PM 41.5969 -86.3847 254° West 462 532 34,100 -48 Climbing Chicago Center
Sun 09:23:24 PM 41.5636 -86.5492 255° West 461 531 33,900  Descending Chicago Center
Sun 09:24:26 PM 41.5275 -86.7244 255° West 459 528 34,100 97 Climbing Chicago Center
Sun 09:25:28 PM 41.4942 -86.8847 255° West 452 520 34,100 -48 Level Chicago Center
Sun 09:26:30 PM 41.4603 -87.0422 254° West 445 512 34,000 -48 Descending Chicago Center
Sun 09:27:32 PM 41.4278 -87.2019 255° West 448 516 34,000  Level Chicago Center
Sun 09:28:34 PM 41.3939 -87.3608 254° West 449 517 34,000  Level Chicago Center
Sun 09:29:36 PM 41.3542 -87.5489 254° West 444 511 34,000  Level Chicago Center
Sun 09:30:38 PM 41.3203 -87.7064 254° West 443 510 34,000  Level Chicago Center
Sun 09:31:40 PM 41.2858 -87.8617 254° West 438 504 34,000  Level Chicago Center
Sun 09:32:41 PM 41.2492 -88.0181 253° West 442 509 34,000  Level Chicago Center
Sun 09:33:43 PM 41.2150 -88.1767 254° West 441 507 34,000  Level Chicago Center
Sun 09:34:45 PM 41.1817 -88.3339 254° West 440 506 34,000  Level Chicago Center
Sun 09:35:47 PM 41.1467 -88.4894 253° West 442 509 34,000  Level Chicago Center
Sun 09:36:49 PM 41.1036 -88.6744 253° West 439 505 34,000  Level Chicago Center
Sun 09:37:51 PM 41.0692 -88.8272 253° West 436 502 34,000  Level Chicago Center
Sun 09:38:53 PM 41.0361 -88.9825 254° West 440 506 34,000  Level Chicago Center
Sun 09:39:55 PM 41.0000 -89.1350 253° West 436 502 34,000  Level Chicago Center
Sun 09:40:57 PM 40.9597 -89.3069 253° West 435 501 34,000  Level Chicago Center
Sun 09:41:59 PM 40.9247 -89.4583 253° West 432 497 34,000  Level Chicago Center
Sun 09:43:01 PM 40.8861 -89.6206 253° West 432 497 34,000  Level Chicago Center
Sun 09:44:02 PM 40.8522 -89.7703 253° West 430 495 34,000  Level Chicago Center
Sun 09:45:04 PM 40.8172 -89.9233 253° West 434 499 34,000  Level Chicago Center
Sun 09:46:06 PM 40.7792 -90.0717 251° West 428 493 34,000  Level Chicago Center
Sun 09:47:08 PM 40.7422 -90.2214 252° West 427 491 34,000  Level Chicago Center
Sun 09:48:10 PM 40.7019 -90.3856 252° West 432 497 34,000  Level Chicago Center
Sun 09:49:12 PM 40.6647 -90.5375 252° West 434 499 34,000  Level Chicago Center
Sun 09:50:14 PM 40.6253 -90.6917 251° West 444 511 34,000  Level Chicago Center
Sun 09:51:15 PM 40.5872 -90.8442 252° West 442 509 34,000  Level Chicago Center
Sun 09:52:17 PM 40.5417 -91.0283 252° West 441 507 34,000  Level Chicago Center
Sun 09:53:19 PM 40.5033 -91.1789 252° West 437 503 34,000  Level Chicago Center
Sun 09:54:21 PM 40.4692 -91.3136 252° West 435 501 34,000  Level Chicago Center
Sun 09:55:23 PM 40.4250 -91.4881 252° West 425 489 34,000  Level Chicago Center
Sun 09:56:24 PM 40.3869 -91.6350 251° West 428 493 34,000  Level Chicago Center
Sun 09:57:26 PM 40.3489 -91.7800 251° West 424 488 34,000  Level Chicago Center
Sun 09:58:28 PM 40.3108 -91.9272 251° West 428 493 34,000  Level Chicago Center
Sun 09:59:30 PM 40.2722 -92.0742 251° West 428 493 34,000  Level Chicago Center
Sun 10:00:31 PM 40.2336 -92.2217 251° West 430 495 34,000  Level Chicago Center
Sun 10:01:33 PM 40.1864 -92.3992 251° West 430 495 34,000  Level Chicago Center
Sun 10:02:35 PM 40.1444 -92.5483 250° West 430 495 34,000  Level Chicago Center
Sun 10:03:37 PM 40.1106 -92.7006 254° West 432 497 34,000 49 Level Chicago Center
Sun 10:04:38 PM 40.0797 -92.8478 255° West 423 487 34,100  Climbing Chicago Center
Sun 10:05:40 PM 40.0483 -92.9928 254° West 417 480 34,000 -46 Descending Chicago Center
Sun 10:06:48 PM 40.0108 -93.1628 254° West 413 475 34,000  Level Kansas City Center
Sun 10:07:50 PM 39.9789 -93.3056 254° West 413 475 34,000  Level Kansas City Center
Sun 10:08:51 PM 39.9450 -93.4542 253° West 426 490 34,000  Level Kansas City Center
Sun 10:09:53 PM 39.9125 -93.5994 254° West 424 488 34,000  Level Kansas City Center
Sun 10:10:54 PM 39.8808 -93.7436 254° West 419 482 34,000  Level Kansas City Center
Sun 10:11:55 PM 39.8483 -93.8889 254° West 421 484 34,000  Level Kansas City Center
Sun 10:12:56 PM 39.8156 -94.0336 254° West 421 484 34,000  Level Kansas City Center
Sun 10:13:58 PM 39.7775 -94.2003 254° West 421 484 34,000  Level Kansas City Center
Sun 10:14:59 PM 39.7450 -94.3406 253° West 422 486 34,000  Level Kansas City Center
Sun 10:16:00 PM 39.7067 -94.5044 253° West 426 490 34,000  Level Kansas City Center
Sun 10:17:01 PM 39.6733 -94.6453 253° West 426 490 34,000  Level Kansas City Center
Sun 10:18:03 PM 39.6344 -94.8106 253° West 430 495 34,000  Level Kansas City Center
Sun 10:19:04 PM 39.6011 -94.9519 253° West 429 494 34,000  Level Kansas City Center
Sun 10:20:05 PM 39.5675 -95.0936 253° West 433 498 34,000  Level Kansas City Center
Sun 10:21:06 PM 39.5244 -95.2692 252° West 432 497 34,000  Level Kansas City Center
Sun 10:22:08 PM 39.4894 -95.4158 253° West 430 495 34,000  Level Kansas City Center
Sun 10:23:09 PM 39.4536 -95.5628 253° West 435 501 34,000  Level Kansas City Center
Sun 10:24:10 PM 39.4175 -95.7050 252° West 438 504 34,000  Level Kansas City Center
Sun 10:25:11 PM 39.3761 -95.8703 252° West 435 501 34,000  Level Kansas City Center
Sun 10:26:12 PM 39.3397 -96.0125 252° West 436 502 34,000  Level Kansas City Center
Sun 10:27:14 PM 39.3044 -96.1544 252° West 443 510 34,000  Level Kansas City Center
Sun 10:28:15 PM 39.2606 -96.3256 252° West 442 509 34,000  Level Kansas City Center
Sun 10:29:16 PM 39.2250 -96.4697 252° West 441 507 34,000  Level Kansas City Center
Sun 10:30:18 PM 39.1811 -96.6375 251° West 443 510 34,000  Level Kansas City Center
Sun 10:31:18 PM 39.1447 -96.7822 252° West 443 510 34,000  Level Kansas City Center
Sun 10:32:20 PM 39.1072 -96.9244 251° West 441 507 34,000  Level Kansas City Center
Sun 10:33:21 PM 39.0636 -97.0922 252° West 441 507 34,000  Level Kansas City Center
Sun 10:34:22 PM 39.0272 -97.2375 252° West 446 513 34,000  Level Kansas City Center
Sun 10:35:23 PM 38.9900 -97.3792 251° West 440 506 34,000  Level Kansas City Center
Sun 10:36:24 PM 38.9447 -97.5444 251° West 440 506 34,000  Level Kansas City Center
Sun 10:37:25 PM 38.9053 -97.6847 250° West 438 504 34,000  Level Kansas City Center
Sun 10:38:27 PM 38.8625 -97.8250 249° West 440 506 34,000  Level Kansas City Center
Sun 10:39:28 PM 38.8183 -97.9697 249° West 443 510 34,000  Level Kansas City Center
Sun 10:40:29 PM 38.7633 -98.1439 248° West 443 510 34,000  Level Kansas City Center
Sun 10:41:30 PM 38.7186 -98.2875 248° West 439 505 34,000  Level Kansas City Center
Sun 10:42:31 PM 38.6733 -98.4322 248° West 439 505 34,000  Level Kansas City Center
Sun 10:43:32 PM 38.6281 -98.5767 248° West 440 506 34,000  Level Kansas City Center
Sun 10:44:33 PM 38.5822 -98.7217 248° West 441 507 34,000  Level Kansas City Center
Sun 10:45:34 PM 38.5361 -98.8653 248° West 439 505 34,000  Level Kansas City Center
Sun 10:46:35 PM 38.4903 -99.0083 248° West 438 504 34,000  Level Kansas City Center
Sun 10:47:37 PM 38.4444 -99.1506 248° West 436 502 34,000  Level Kansas City Center
Sun 10:48:38 PM 38.4075 -99.2958 252° West 434 499 34,000  Level Kansas City Center
Sun 10:49:39 PM 38.3639 -99.4717 252° West 434 499 34,000  Level Kansas City Center
Sun 10:50:40 PM 38.3267 -99.6147 252° West 435 501 34,000  Level Kansas City Center
Sun 10:51:41 PM 38.3103 -99.7619 262° West 435 501 34,000  Level Kansas City Center
Sun 10:52:42 PM 38.2928 -99.9325 263° West 435 501 34,000  Level Kansas City Center
Sun 10:53:43 PM 38.2764 -100.0753 262° West 431 496 34,000  Level Kansas City Center
Sun 10:54:44 PM 38.2625 -100.2169 263° West 426 490 34,000  Level Kansas City Center
Sun 10:55:45 PM 38.2447 -100.3853 262° West 429 494 34,000  Level Kansas City Center
Sun 10:56:46 PM 38.2308 -100.5256 263° West 423 487 34,000  Level Kansas City Center
Sun 10:57:47 PM 38.2156 -100.6889 263° West 421 484 34,000  Level Kansas City Center
Sun 10:58:48 PM 38.2044 -100.8261 264° West 413 475 34,000  Level Kansas City Center
Sun 10:59:50 PM 38.1944 -100.9639 265° West 411 473 34,000  Level Kansas City Center
Sun 11:00:54 PM 38.1822 -101.1278 265° West 422 486 34,000 48 Level Denver Center
Sun 11:01:56 PM 38.1683 -101.2922 264° West 420 483 34,100  Climbing Denver Center
Sun 11:02:58 PM 38.1456 -101.4289 258° West 416 479 34,000 -51 Descending Denver Center
Sun 11:03:54 PM 38.1042 -101.5614 248° West 418 481 34,000  Level Kansas City Center
Sun 11:04:55 PM 38.0619 -101.6919 248° West 419 482 34,000  Level Kansas City Center
Sun 11:05:56 PM 38.0136 -101.8464 248° West 421 484 34,000  Level Kansas City Center
Sun 11:06:57 PM 37.9700 -101.9792 247° West 426 490 34,000  Level Kansas City Center
Sun 11:07:58 PM 37.9200 -102.1364 248° West 431 496 34,000  Level Kansas City Center
Sun 11:08:59 PM 37.8761 -102.2706 248° West 432 497 34,000  Level Kansas City Center
Sun 11:10:00 PM 37.8325 -102.4053 248° West 433 498 34,000  Level Kansas City Center
Sun 11:11:01 PM 37.7803 -102.5628 247° West 434 499 34,000  Level Kansas City Center
Sun 11:12:02 PM 37.7361 -102.6964 247° West 432 497 34,000  Level Kansas City Center
Sun 11:13:03 PM 37.6922 -102.8292 247° West 429 494 34,000  Level Kansas City Center
Sun 11:14:04 PM 37.6400 -102.9844 247° West 431 496 34,000  Level Kansas City Center
Sun 11:15:06 PM 37.5961 -103.1181 248° West 431 496 34,000  Level Kansas City Center
Sun 11:16:07 PM 37.5464 -103.2667 247° West 432 497 34,000  Level Albuquerque Center
Sun 11:17:09 PM 37.5014 -103.4019 247° West 435 501 34,000  Level Albuquerque Center
Sun 11:18:10 PM 37.4483 -103.5575 247° West 433 498 34,000  Level Albuquerque Center
Sun 11:19:12 PM 37.4031 -103.6919 247° West 432 497 34,000  Level Albuquerque Center
Sun 11:20:13 PM 37.3506 -103.8425 246° West 432 497 34,000  Level Albuquerque Center
Sun 11:21:15 PM 37.3039 -103.9800 247° West 428 493 34,000  Level Albuquerque Center
Sun 11:22:16 PM 37.2569 -104.1158 247° West 422 486 34,000  Level Albuquerque Center
Sun 11:23:18 PM 37.2081 -104.2575 247° West 412 474 34,000  Level Albuquerque Center
Sun 11:24:19 PM 37.1633 -104.3858 246° West 415 478 34,000  Level Albuquerque Center
Sun 11:25:21 PM 37.1194 -104.5133 247° West 415 478 34,000  Level Albuquerque Center
Sun 11:26:23 PM 37.0667 -104.6597 246° West 415 478 34,000  Level Albuquerque Center
Sun 11:27:36 PM 37.0144 -104.8081 246° West 413 475 34,000  Level Denver Center
Sun 11:28:37 PM 36.9644 -104.9492 246° West 410 472 34,000  Level Denver Center
Sun 11:29:38 PM 36.9175 -105.0758 245° Southwest 404 465 34,000  Level Denver Center
Sun 11:30:40 PM 36.8681 -105.2203 247° West 406 467 34,000  Level Denver Center
Sun 11:31:30 PM 36.8300 -105.3219 245° Southwest 409 471 34,000  Level Albuquerque Center
Sun 11:32:32 PM 36.7861 -105.4461 246° West 410 472 34,000  Level Albuquerque Center
Sun 11:33:33 PM 36.7397 -105.5856 247° West 412 474 34,000  Level Albuquerque Center
Sun 11:34:35 PM 36.7008 -105.6975 247° West 407 468 34,000  Level Albuquerque Center
Sun 11:35:36 PM 36.6389 -105.8472 243° Southwest 405 466 34,000  Level Albuquerque Center
Sun 11:36:38 PM 36.5939 -105.9725 246° West 409 471 34,000  Level Albuquerque Center
Sun 11:37:39 PM 36.5406 -106.1139 245° Southwest 405 466 34,000  Level Albuquerque Center
Sun 11:38:41 PM 36.4839 -106.2347 240° Southwest 417 480 34,000  Level Albuquerque Center
Sun 11:39:42 PM 36.4269 -106.3539 239° Southwest 419 482 34,000  Level Albuquerque Center
Sun 11:40:44 PM 36.3633 -106.4917 240° Southwest 415 478 34,000  Level Albuquerque Center
Sun 11:41:45 PM 36.3083 -106.6106 240° Southwest 414 476 34,000  Level Albuquerque Center
Sun 11:42:46 PM 36.2431 -106.7467 239° Southwest 412 474 34,000  Level Albuquerque Center
Sun 11:43:48 PM 36.1878 -106.8653 240° Southwest 414 476 34,000  Level Albuquerque Center
Sun 11:44:49 PM 36.1275 -106.9928 240° Southwest 415 478 34,000  Level Albuquerque Center
Sun 11:45:50 PM 36.0697 -107.1128 239° Southwest 411 473 34,000  Level Albuquerque Center
Sun 11:46:52 PM 36.0114 -107.2350 239° Southwest 409 471 34,000  Level Albuquerque Center
Sun 11:47:53 PM 35.9472 -107.3708 240° Southwest 409 471 34,000  Level Albuquerque Center
Sun 11:48:54 PM 35.8903 -107.4886 239° Southwest 413 475 34,000  Level Albuquerque Center
Sun 11:49:56 PM 35.8336 -107.6064 239° Southwest 417 480 34,000  Level Albuquerque Center
Sun 11:50:57 PM 35.7672 -107.7436 239° Southwest 417 480 34,000  Level Albuquerque Center
Sun 11:51:58 PM 35.7103 -107.8608 239° Southwest 416 479 34,000  Level Albuquerque Center
Sun 11:52:59 PM 35.6525 -107.9786 239° Southwest 417 480 34,000  Level Albuquerque Center
Sun 11:54:01 PM 35.5853 -108.1161 239° Southwest 419 482 34,000  Level Albuquerque Center
Sun 11:55:02 PM 35.5275 -108.2336 239° Southwest 419 482 34,000  Level Albuquerque Center
Sun 11:56:03 PM 35.4692 -108.3511 239° Southwest 420 483 34,000  Level Albuquerque Center
Sun 11:57:04 PM 35.3994 -108.4906 239° Southwest 423 487 34,000  Level Albuquerque Center
Sun 11:58:06 PM 35.3419 -108.6075 239° Southwest 420 483 34,000  Level Albuquerque Center
Sun 11:59:07 PM 35.2739 -108.7431 238° Southwest 418 481 34,000  Level Albuquerque Center
Mon 12:00:08 AM 35.2158 -108.8597 239° Southwest 416 479 34,000  Level Albuquerque Center
Mon 12:01:09 AM 35.1575 -108.9761 239° Southwest 417 480 34,000  Level Albuquerque Center
Mon 12:02:10 AM 35.0900 -109.1106 238° Southwest 416 479 34,000  Level Albuquerque Center
Mon 12:03:11 AM 35.0331 -109.2239 238° Southwest 411 473 34,000  Level Albuquerque Center
Mon 12:04:12 AM 34.9756 -109.3372 238° Southwest 409 471 34,000  Level Albuquerque Center
Mon 12:05:14 AM 34.9086 -109.4664 238° Southwest 405 466 34,000  Level Albuquerque Center
Mon 12:06:15 AM 34.8519 -109.5736 237° Southwest 398 458 34,000  Level Albuquerque Center
Mon 12:07:16 AM 34.7964 -109.6828 238° Southwest 395 455 34,000  Level Albuquerque Center
Mon 12:08:17 AM 34.7308 -109.8097 238° Southwest 396 456 34,000  Level Albuquerque Center
Mon 12:09:18 AM 34.6822 -109.9247 243° Southwest 398 458 34,000  Level Albuquerque Center
Mon 12:10:19 AM 34.6319 -110.0606 246° West 395 455 34,000  Level Albuquerque Center
Mon 12:11:20 AM 34.5817 -110.1781 243° Southwest 405 466 34,000 -295 Level Albuquerque Center
Mon 12:12:21 AM 34.5253 -110.2842 237° Southwest 397 457 33,400 -1,033 Descending Albuquerque Center
Mon 12:13:22 AM 34.4633 -110.4108 239° Southwest 394 453 31,900 -2,049 Descending Albuquerque Center
Mon 12:14:24 AM 34.4081 -110.5322 241° Southwest 406 467 29,200 -2,537 Descending Albuquerque Center
Mon 12:15:25 AM 34.3517 -110.6486 240° Southwest 403 464 26,700 -2,459 Descending Albuquerque Center
Mon 12:16:26 AM 34.2894 -110.7633 237° Southwest 406 467 24,200 -2,459 Descending Albuquerque Center
Mon 12:17:27 AM 34.2322 -110.8783 239° Southwest 403 464 21,700 -2,311 Descending Albuquerque Center
Mon 12:18:28 AM 34.1789 -110.9875 239° Southwest 387 445 19,500 -1,721 Descending Albuquerque Center
Mon 12:19:29 AM 34.1278 -111.0878 238° Southwest 364 419 18,200 -1,623 Descending Albuquerque Center
Mon 12:20:30 AM 34.0661 -111.1686 227° Southwest 331 381 16,200 -1,770 Descending Albuquerque Center
Mon 12:21:31 AM 34.0056 -111.2461 227° Southwest 321 369 14,600 -1,574 Descending Albuquerque Center
Mon 12:22:32 AM 33.9469 -111.3211 227° Southwest 309 356 13,000 -1,377 Descending Albuquerque Center
Mon 12:23:33 AM 33.8883 -111.3958 227° Southwest 306 352 11,800 -1,230 Descending Albuquerque Center
Mon 12:24:34 AM 33.8278 -111.4514 217° Southwest 275 316 10,500 -1,525 Descending Albuquerque Center
Mon 12:25:35 AM 33.7658 -111.5047 216° Southwest 273 314 8,700 -1,230 Descending Albuquerque Center
Mon 12:26:36 AM 33.7050 -111.5556 215° Southwest 263 303 8,000 -344 Descending Albuquerque Center
Mon 12:27:37 AM 33.6425 -111.6100 216° Southwest 233 268 8,000 -492 Level Albuquerque Center
Mon 12:28:38 AM 33.5897 -111.6542 215° Southwest 231 266 7,000 -1,033 Descending Albuquerque Center
Mon 12:29:39 AM 33.5381 -111.6967 214° Southwest 226 260 5,900 -1,033 Descending Albuquerque Center
Mon 12:30:40 AM 33.4883 -111.7389 215° Southwest 219 252 4,900 -738 Descending Albuquerque Center
Mon 12:31:41 AM 33.4533 -111.7878 229° Southwest 193 222 4,400 -787 Descending Albuquerque Center
Mon 12:32:42 AM 33.4408 -111.8464 256° West 187 215 3,300 -982 Descending Albuquerque Center
Mon 12:33:31 AM 33.4333 -111.9000 260° West 179 206 2,600 -835 Descending Phoenix TRACON
Mon 12:34:37 AM 33.4333 -111.9500 270° West 139 160 1,700 -818 Descending Phoenix TRACON
Mon 12:37:00 AM 33.4343 -112.0116 270° West  Level Estimated

Login

Don't have an account? Register now (free) for customized features, flight alerts, and more!